Location: Litvinovka
(48.6667°N, 34.3500°E)
Time: 07:24:30
(UTC+00:00)

NOSS 3-2 (A) - Pass Details

Date: 18 September 2020
Orbit: 795 x 1413 km, 63.4° (Epoch: 02 October)

Event Time Altitude Azimuth Distance (km) Brightness Sun altitude
Rises 16:21:43 0° 316° (NW) 3,841 7.6 -6.3°
Reaches altitude 10° 16:24:20 10° 322° (NW) 2,972 6.8 -6.7°
Maximum altitude 16:31:17 49° 37° (NE) 1,543 4.4 -7.9°
Enters shadow 16:39:07 10° 110° (ESE) 3,347 5.6 -9.1°
